Marshfield, WI

5:33 PM CST on February 05, 2016 (GMT -0600)
Marshfield Municipal

Weather History for KMFI - July, 2015

Change the Weather History Date:

Saturday, July 25, 2015

  Actual Average Record
Temperature  
Mean Temperature 76 °F -  
Max Temperature 87 °F 81 °F 93 °F (1930)
Min Temperature 66 °F 58 °F 40 °F (1913)
Cooling Degree Days 12    
Growing Degree Days 26 (Base 50)    
Moisture  
Dew Point 61 °F    
Average Humidity 66    
Maximum Humidity 90    
Minimum Humidity 31    
Precipitation  
Precipitation 0.00 in - - ()
Sea Level Pressure  
Sea Level Pressure 29.93 in    
Wind  
Wind Speed 7 mph (NW)    
Max Wind Speed 14 mph    
Max Gust Speed 17 mph    
Visibility 9 miles    
Events      
Averages and records for this station are not official NWS values.
T = Trace of Precipitation, MM = Missing Value Source: NWS Daily Summary

Daily Weather History Graph

Daily Weather History Graph

Search for Another Location

Airport or City:

Trip Planner

Search our weather history database for the weather conditions in past years. The results will help you decide how hot, cold, wet, or windy it might be!

Date:

Astronomy

Jul. 25, 2015 Rise Set
Actual Time 5:39 AM CDT 8:34 PM CDT
Civil Twilight 5:04 AM CDT 9:08 PM CDT
Nautical Twilight 4:21 AM CDT 9:52 PM CDT
Astronomical Twilight 3:29 AM CDT 10:43 PM CDT
Moon 3:07 PM CDT (7/25) 12:48 AM CDT (7/25)
Length of Visible Light 16h 04m
Length of Day
14h 55m
Waxing Gibbous, 65% of the Moon is Illuminated
Jul 25
Waxing Gibbous
Jul 31
Full
Aug 6
Last Quarter
Aug 14
New
Aug 22
First Quarter

Hourly Weather History & Observations

Time (CDT) Temp. Heat Index Dew Point Humidity Pressure Visibility Wind Dir Wind Speed Gust Speed Precip Events Conditions
12:54 AM 70.0 °F - 64.0 °F 81% 29.85 in 10.0 mi West 5.8 mph - 0.00 in   Partly Cloudy
1:54 AM 68.0 °F - 63.0 °F 84% 29.86 in 9.0 mi NW 5.8 mph - N/A   Clear
2:54 AM 66.9 °F - 63.0 °F 87% 29.87 in 7.0 mi WNW 5.8 mph - N/A   Clear
3:54 AM 66.9 °F - 63.0 °F 87% 29.90 in 9.0 mi WNW 8.1 mph - N/A   Clear
4:03 AM 66.9 °F - 63.0 °F 87% 29.93 in 9.0 mi WNW 8.1 mph - N/A   Scattered Clouds
4:12 AM 66.9 °F - 63.0 °F 87% 29.92 in 8.0 mi NW 8.1 mph - N/A   Mostly Cloudy
4:49 AM 68.0 °F - 64.4 °F 88% 29.90 in 2.0 mi NNW 9.2 mph - N/A   Overcast
4:54 AM 68.0 °F - 64.9 °F 90% 29.88 in 2.5 mi NNW 11.5 mph - N/A   Overcast
5:03 AM 68.0 °F - 64.9 °F 90% 29.90 in 4.0 mi NNW 10.4 mph - N/A   Overcast
5:54 AM 68.0 °F - 64.0 °F 87% 29.89 in 7.0 mi NNW 8.1 mph - N/A   Overcast
6:11 AM 68.0 °F - 64.0 °F 87% 29.92 in 7.0 mi NW 5.8 mph - N/A   Scattered Clouds
6:54 AM 69.1 °F - 64.0 °F 84% 29.91 in 9.0 mi NNW 4.6 mph - N/A   Clear
7:54 AM 72.0 °F - 64.0 °F 76% 29.94 in 10.0 mi North 10.4 mph - N/A   Clear
8:54 AM 75.0 °F - 60.1 °F 60% 29.95 in 10.0 mi NNE 13.8 mph 17.3 mph N/A   Clear
9:54 AM 78.1 °F - 59.0 °F 52% 29.96 in 10.0 mi NE 6.9 mph - N/A   Clear
10:54 AM 80.1 °F 80.4 °F 57.0 °F 45% 29.99 in 10.0 mi ENE 6.9 mph - N/A   Clear
11:54 AM 81.0 °F 80.8 °F 55.9 °F 42% 29.99 in 10.0 mi NW 8.1 mph - N/A   Clear
12:54 PM 82.9 °F 82.1 °F 55.9 °F 39% 29.98 in 10.0 mi NNW 5.8 mph - N/A   Clear
1:54 PM 84.0 °F 82.9 °F 55.0 °F 37% 29.97 in 9.0 mi NW 8.1 mph - N/A   Clear
2:54 PM 84.9 °F 83.7 °F 55.9 °F 37% 29.96 in 10.0 mi West 5.8 mph - N/A   Clear
3:54 PM 87.1 °F 85.7 °F 55.9 °F 35% 29.94 in 10.0 mi NNW 8.1 mph - N/A   Clear
4:54 PM 86.0 °F - 52.0 °F 31% 29.95 in 10.0 mi Variable 4.6 mph - N/A   Clear
5:54 PM 84.9 °F 83.6 °F 55.0 °F 36% 29.95 in 10.0 mi NNW 5.8 mph - N/A   Clear
6:54 PM 82.9 °F 82.1 °F 55.9 °F 39% 29.94 in 10.0 mi West 5.8 mph - N/A   Clear
7:54 PM 78.1 °F - 62.1 °F 58% 29.94 in 10.0 mi West 3.5 mph - N/A   Clear
8:54 PM 73.0 °F - 62.1 °F 68% 29.94 in 10.0 mi Calm Calm - N/A   Clear
9:54 PM 71.1 °F - 62.1 °F 73% 29.95 in 10.0 mi Calm Calm - N/A   Clear
10:54 PM 69.1 °F - 62.1 °F 78% 29.95 in 10.0 mi Calm Calm - N/A   Clear
11:54 PM 66.9 °F - 60.1 °F 79% 29.95 in 10.0 mi Calm Calm - N/A   Clear